INTELSAT 14 (IS-14) (36097 NORAD) Tracking and Keplerian Element Data

This shows tracking and keplerian element data for the satellite.

Feedback or suggestion? Click here.




ElementValue
Catalog36097
NameINTELSAT 14 (IS-14)
Epoch Orbit5446
Epoch Day286.82560293
Epoch Year2024
RAAN265.0724
Inclination0.0151
Eccentricity0.0002571
Argument of Perigee297.7546
Mean Anonmoly71.3151
Mean Motion1.00271031
Decay Rate-2.74E-06
L11 36097U 09064A 24286.82560293 -.00000274 00000+0 00000+0 0 9993
L22 36097 0.0151 265.0724 0002571 297.7546 71.3151 1.00271031 54467



Live tracking and technical data element details for INTELSAT 14 (IS-14) (NORAD 36097). INTELSAT 14 (IS-14) can be tracked NOW for your location showing map with azimuth and elevation plus other details from your city location.







IsCatalogInMostPopularTable: catalog: 36097, numindb: 612
Update: records affected: 1



GetName: 36097 INTELSAT 14 (IS-14)

Hit Count: updated at: Tue, 03 Dec 2024 02:29:52 GMT